Location: Wayah Bald
(35.1806°N, 83.5603°W)
Time: 08:30:08
(UTC-04:00)

Daily predictions for brighter satellites

Satellite Brightness Start Highest point End
(mag) Time Altitude Azimuth Time Altitude Azimuth Time Altitude Azimuth
Chandra Rocket (1) 4.3 20:35:31 10° WSW 20:41:11 60° S 21:04:22 10° E
FengYun 1-2 T 4.5 21:02:02 10° S 21:07:32 75° WSW 21:13:01 10° NNW
Delta 168 4.5 21:06:25 10° SSW 21:08:31 15° SSE 21:10:56 10° SE
Cosmos 1110 Rocket 4.4 21:05:43 10° N 21:10:50 47° ENE 21:15:51 10° SE
USA 186 1.5 21:09:35 10° SSE 21:12:30 62° ENE 21:15:14 10° N
Meteor 2-4 Rocket 4.1 21:08:19 10° SSE 21:13:54 50° E 21:19:35 10° NNE
Abrixas rocket 4.2 21:11:56 10° NNW 21:14:42 22° NNE 21:17:27 10° E
Cosmos 2333 Rocket 3.9 21:10:30 10° SW 21:15:45 40° WNW 21:21:03 10° N
Meteor 1-19 Rocket 4.2 21:10:40 10° S 21:16:16 73° E 21:21:51 10° NNE
Okean 2 3.9 21:12:26 10° SSE 21:16:20 39° E 21:20:15 10° NNE
BREEZE M DEB (TANK) 4.2 21:15:28 10° WNW 21:18:16 17° NNW 21:19:57 10° NE
Cosmos 2297 3.9 21:15:03 10° NNW 21:20:41 58° ENE 21:26:19 10° SE
Cosmos 1844 Rocket 4.4 21:15:54 10° NW 21:20:52 32° WSW 21:25:47 10° SSW
FENGYUN 3A 3.7 21:20:20 10° SSE 21:25:41 89° ENE 21:31:07 10° NNW
H-2A R/B 2.9 21:24:21 10° S 21:28:17 82° W 21:32:16 10° NNW
Cosmos 1726 Rocket 3.5 21:24:26 10° N 21:28:52 71° E 21:33:15 10° SSE
OTV 4 2.9 21:29:09 10° WSW 21:30:50 14° SSW 21:32:29 10° S
PSLV R/B 3.3 21:27:28 10° WSW 21:30:58 76° SSE 21:34:32 10° ENE
ISS -2.1 21:28:25 10° S 21:31:01 22° SE 21:33:37 10° ENE
Cosmos 2285 Rocket 4.1 21:29:35 10° N 21:35:51 61° ENE 21:41:42 12° SSE
Cosmos 494 Rocket 4.1 21:32:52 10° SSW 21:37:58 81° WNW 21:43:07 10° NNE
CZ-2C R/B 0.3 21:36:30 15° SSE 21:38:18 81° ENE 21:40:37 10° N
CZ-4 DEB 3.8 21:36:04 10° S 21:39:10 44° W 21:42:17 10° NNW
SPOT 5 3.8 21:36:20 14° ESE 21:39:10 26° ENE 21:42:48 10° NNE
Cosmos 1461 4.4 21:36:05 10° N 21:39:36 24° NE 21:42:09 14° E
Cosmos 2058 Rocket 3.0 21:38:12 10° N 21:42:35 77° E 21:46:55 10° S
YAOGAN 11 4.4 21:39:26 10° S 21:43:47 68° WSW 21:48:06 10° NNW
GEOS 3 Rocket 3.8 21:38:41 11° SSE 21:43:48 73° WSW 21:49:02 10° NW
Cosmos 1602 Rocket 4.0 21:40:42 10° SSE 21:44:56 43° E 21:49:11 10° NNE
Cosmos 1464 Rocket 4.0 21:40:42 10° N 21:46:50 71° E 21:52:58 10° SSE
CZ-4 SHROUD 4.4 21:46:44 21° ESE 21:47:59 27° ENE 21:50:43 10° NNE
ALOS 3.4 21:46:36 10° S 21:51:01 43° W 21:55:28 10° NNW
Aureole 2 Rocket 2.9 21:48:00 10° SSW 21:52:03 75° WNW 21:55:45 10° NNE
deb Chang Zheng 4 3.9 21:51:13 10° N 21:55:36 69° WNW 21:59:55 10° SSW
Cosmos 1812 Rocket 4.5 21:54:48 10° NNE 21:58:44 31° ENE 22:00:27 24° ESE
Cosmos 2278 Rocket 3.9 21:55:42 10° NW 22:00:34 30° WSW 22:05:25 10° SSW
Cosmos 2034 Rocket 4.0 21:59:03 10° N 22:05:26 74° E 22:10:30 17° SSE
Cosmos 1331 Rocket 4.5 22:00:41 10° NNW 22:05:46 58° WSW 22:10:15 13° S
Atlas Centaur 2 3.1 22:01:08 10° WSW 22:08:24 52° SSE 22:15:35 14° E
H-2A R/B 2.4 22:05:23 15° S 22:08:50 62° WSW 22:13:07 10° NNW
SeaSat 1 2.7 22:07:21 25° SE 22:10:01 54° ENE 22:14:51 10° NNW
ARGOS 4.3 22:10:34 22° ESE 22:12:45 29° ENE 22:17:19 10° N
Meteor 1-15 Rocket 4.3 22:07:26 10° NNW 22:13:01 78° W 22:17:41 16° S
Cosmos 2369 Rocket 3.8 22:10:00 10° N 22:14:09 21° ENE 22:16:29 16° E
DEBRIS 2.6 22:10:41 10° NW 22:15:00 50° NNE 22:15:34 39° ENE
Cosmos 1302 Rocket 4.0 22:10:42 10° NNW 22:15:57 83° WSW 22:19:13 24° SSE
PSLV R/B 3.0 22:16:10 51° SSE 22:16:49 76° ENE 22:19:55 10° N
SL-16 R/B 4.2 22:12:36 10° WSW 22:17:31 30° WNW 22:22:30 10° N
Cosmos 1666 3.2 22:14:07 10° NNW 22:17:57 60° W 22:20:23 21° SSW
Cosmos 1626 Rocket 3.7 22:13:36 10° S 22:17:59 76° W 22:22:25 10° N
CZ-4B R/B 3.5 22:14:37 10° NNE 22:19:40 59° ESE 22:22:53 23° S
Cosmos 1939 Rocket 3.3 22:17:37 21° S 22:20:15 63° W 22:24:23 10° NNW
COSMOS 2455 2.7 22:19:07 10° SSW 22:25:06 80° ESE 22:31:08 10° NNE
Milstar 3 Cent rocket 3.4 22:20:45 10° W 22:26:20 25° SSW 22:27:55 22° S
Meteor 2-12 Rocket 4.5 22:23:47 10° N 22:29:50 62° E 22:32:33 33° SSE
OAO 3 Copernicus 4.3 22:24:58 10° W 22:29:58 63° SSW 22:31:34 40° SE
MetOp-B 4.1 22:28:01 32° SSE 22:30:33 75° ENE 22:35:54 10° N
Cosmos 2228 4.2 22:27:51 10° NNW 22:32:01 41° W 22:35:07 16° SSW
APEX 4.4 22:30:26 10° NW 22:34:41 54° WSW 22:37:25 27° S
ATLAS 3B R/B 3.1 22:27:50 10° S 22:35:13 52° ESE 22:42:31 10° NE
Cosmos 1953 Rocket 4.3 22:35:33 35° E 22:35:33 35° E 22:39:27 10° NNE
Centaur D AC-28 3.5 22:40:57 10° WSW 22:42:46 17° SSW 22:42:46 17° SSW
Cosmos 1515 3.6 22:43:53 58° SSW 22:44:34 83° W 22:48:27 10° N
Envisat 3.7 22:42:41 23° SSW 22:45:37 48° W 22:50:32 10° NNW
Cosmos 1066 Rocket 4.2 22:43:48 39° SSE 22:45:51 65° E 22:51:34 10° NNE
USA 234 3.4 22:45:57 33° ESE 22:49:03 66° NE 22:55:33 10° NW
Cosmos 407 Rocket 3.7 22:49:25 46° ESE 22:49:44 47° ESE 22:54:45 10° NNE
Abrixas rocket 3.1 22:48:39 10° WNW 22:51:25 44° WSW 22:51:25 44° WSW
Cosmos 1346 Rocket 3.3 22:55:59 46° NE 22:55:59 46° NE 22:59:03 10° NNE
DELTA 2 DEB (DPAF) 4.4 22:56:14 51° E 22:56:24 51° ENE 23:00:45 10° N
SL-23 DEB 4.4 22:49:23 10° SW 22:56:27 62° SE 22:58:26 32° ENE
Lacrosse 4 Rocket 2.5 22:59:11 32° NE 22:59:11 32° NE 23:01:34 10° NE
YAOGAN 6 3.1 23:02:20 56° W 23:02:20 56° W 23:06:01 10° NNW
USA 81 4.0 23:01:35 10° N 23:06:53 84° W 23:08:02 56° S
ISS -1.3 23:04:27 10° W 23:07:20 29° NW 23:10:14 10° NNE
Cosmos 1758 Rocket 3.6 23:10:06 66° NE 23:10:06 66° NE 23:14:02 10° N
USA 238 DEB 4.4 23:10:57 34° E 23:10:57 34° E 23:16:20 10° NE
USA 238 4.5 23:11:06 34° E 23:11:06 34° E 23:16:23 10° NE
Cosmos 1943 3.3 23:07:21 25° SSW 23:10:44 73° WNW 23:16:27 10° NNE
Meteor 1-21 4.2 23:11:18 59° SE 23:11:57 64° E 23:17:41 10° NNE
CZ-4 R/B 4.4 23:08:29 10° N 23:13:23 58° WNW 23:15:27 33° SW
CARTOSAT-1 4.3 23:14:29 42° NE 23:14:29 42° NE 23:18:00 10° N
Cosmos 1461 4.5 23:15:15 10° NW 23:18:39 25° WSW 23:18:39 25° WSW
Cosmos 1943 Rocket 3.3 23:18:20 10° N 23:23:06 29° ENE 23:23:31 29° ENE
Landsat 7 3.7 23:23:17 83° NE 23:23:17 83° NE 23:27:56 10° N
Spot 2 4.5 23:21:05 10° NNE 23:25:25 66° ENE 23:25:25 66° ENE
SL-08 RB Rocket 4.0 23:27:20 60° W 23:27:20 60° W 23:31:48 10° NNW
Cosmos 1992 Rocket 4.2 23:22:39 10° NNW 23:27:47 60° WSW 23:28:11 58° SW
H-2A R/B 2.0 23:28:49 69° NE 23:28:49 69° NE 23:33:35 10° N
Cosmos 1766 4.4 23:31:37 10° N 23:34:21 42° N 23:34:21 42° N
Terra 2.0 23:39:33 68° N 23:39:33 68° N 23:43:44 10° N
Nadezhda 4 Rocket 4.1 23:45:01 60° E 23:45:01 60° E 23:51:07 10° NNE
ARGOS 4.4 23:52:05 31° WSW 23:52:49 32° W 23:57:38 10° NW
DMSP B5D2-2 4.3 23:48:07 10° N 23:53:22 66° WNW 23:53:28 65° W
